N7AB KEYW-MYNN

Flight info

Callsign N7AB
Flight time N/A
Altitude 31000
Route CARNU DCT RAJAY
Aircraft SF50/L-SDGRWY/L

Departure

Time 2026-04-27 20:23
Airport Key West International Airport (KEYW)

Arrival

Time N/A
Airport Lynden Pindling International Airport (MYNN)
Time Latitude Longitude Altitude Speed Heading
2026-04-27 20:12 24.55499 -81.75869 12 ft 0 kts 355°
2026-04-27 20:19 24.55515 -81.75873 12 ft 5 kts 295°
2026-04-27 20:19 24.55524 -81.75997 8 ft 22 kts 269°
2026-04-27 20:19 24.55524 -81.76188 7 ft 26 kts 269°
2026-04-27 20:19 24.55523 -81.76368 6 ft 22 kts 271°
2026-04-27 20:20 24.55522 -81.76520 5 ft 18 kts 269°
2026-04-27 20:20 24.55523 -81.76623 7 ft 8 kts 282°
2026-04-27 20:20 24.55526 -81.76631 7 ft 0 kts 300°
2026-04-27 20:21 24.55577 -81.76654 8 ft 17 kts 16°
2026-04-27 20:21 24.55608 -81.76594 8 ft 0 kts 90°
2026-04-27 20:23 24.55613 -81.76272 5 ft 83 kts 86°
2026-04-27 20:23 24.55618 -81.75414 160 ft 136 kts 86°
2026-04-27 20:23 24.55610 -81.74201 616 ft 178 kts 84°
2026-04-27 20:24 24.56140 -81.72901 1113 ft 205 kts 42°
2026-04-27 20:24 24.57522 -81.72330 1618 ft 226 kts
2026-04-27 20:24 24.59146 -81.72349 2189 ft 237 kts 358°
2026-04-27 20:24 24.60798 -81.72365 2922 ft 238 kts
2026-04-27 20:25 24.62452 -81.72277 3646 ft 238 kts
2026-04-27 20:25 24.64080 -81.72184 4366 ft 237 kts
2026-04-27 20:25 24.65728 -81.72113 5097 ft 237 kts
2026-04-27 20:25 24.67378 -81.72054 5824 ft 237 kts
2026-04-27 20:26 24.69028 -81.71984 6561 ft 237 kts
2026-04-27 20:26 24.70669 -81.71855 7258 ft 236 kts
2026-04-27 20:26 24.72217 -81.71259 7964 ft 237 kts 25°
2026-04-27 20:26 24.73527 -81.70241 8913 ft 228 kts 40°
2026-04-27 20:27 24.74614 -81.68974 9710 ft 227 kts 45°
2026-04-27 20:27 24.75700 -81.67715 10465 ft 226 kts 44°
2026-04-27 20:27 24.76781 -81.66467 11211 ft 225 kts 45°
2026-04-27 20:27 24.77845 -81.65218 11974 ft 223 kts 44°
2026-04-27 20:28 24.78902 -81.63984 12744 ft 220 kts 44°
2026-04-27 20:28 24.79949 -81.62765 13547 ft 218 kts 44°
2026-04-27 20:28 24.80984 -81.61555 14299 ft 215 kts 43°
2026-04-27 20:28 24.81662 -81.60765 14781 ft 213 kts 43°
2026-04-27 20:29 24.83008 -81.59191 15778 ft 208 kts 42°
2026-04-27 20:29 24.84096 -81.58197 16543 ft 200 kts 32°
2026-04-27 20:29 24.85183 -81.57274 17328 ft 194 kts 33°
2026-04-27 20:29 24.86220 -81.56371 18131 ft 183 kts 32°
2026-04-27 20:30 24.87165 -81.55550 18841 ft 163 kts 31°
2026-04-27 20:30 24.87999 -81.54832 19523 ft 141 kts 30°
2026-04-27 20:30 24.88715 -81.54211 20203 ft 119 kts 28°
2026-04-27 20:30 24.89416 -81.53631 20355 ft 140 kts 27°
2026-04-27 20:31 24.90267 -81.52916 20435 ft 169 kts 30°
2026-04-27 20:31 24.91267 -81.52060 20516 ft 195 kts 31°
2026-04-27 20:31 24.92365 -81.51107 20721 ft 210 kts 32°
2026-04-27 20:31 24.93555 -81.50078 20980 ft 220 kts 32°
2026-04-27 20:32 24.94783 -81.49019 21235 ft 228 kts 32°
2026-04-27 20:32 24.96029 -81.47943 21485 ft 234 kts 32°
2026-04-27 20:32 24.97322 -81.46829 21744 ft 238 kts 32°
2026-04-27 20:32 24.98635 -81.45695 21993 ft 241 kts 32°
2026-04-27 20:33 24.99960 -81.44553 22247 ft 243 kts 32°
2026-04-27 20:33 25.01289 -81.43397 22504 ft 244 kts 32°
2026-04-27 20:33 25.02628 -81.42243 22760 ft 245 kts 32°
2026-04-27 20:33 25.03967 -81.41087 23021 ft 245 kts 32°
2026-04-27 20:34 25.05310 -81.39929 23284 ft 245 kts 32°
2026-04-27 20:34 25.06652 -81.38772 23548 ft 245 kts 32°
2026-04-27 20:34 25.07994 -81.37612 23786 ft 245 kts 32°
2026-04-27 20:34 25.09333 -81.36456 24007 ft 244 kts 32°
2026-04-27 20:35 25.10667 -81.35302 24227 ft 244 kts 32°
2026-04-27 20:35 25.11981 -81.34115 24450 ft 246 kts 37°
2026-04-27 20:35 25.13048 -81.32616 24673 ft 253 kts 52°
2026-04-27 20:35 25.13772 -81.30826 24896 ft 260 kts 67°
2026-04-27 20:36 25.14074 -81.28841 25126 ft 265 kts 81°
2026-04-27 20:36 25.14181 -81.26818 25365 ft 264 kts 81°
2026-04-27 20:36 25.14316 -81.24798 25599 ft 264 kts 81°
2026-04-27 20:36 25.14445 -81.22779 25834 ft 264 kts 81°
2026-04-27 20:37 25.14568 -81.20760 26066 ft 263 kts 81°
2026-04-27 20:37 25.14693 -81.18747 26305 ft 263 kts 81°
2026-04-27 20:37 25.14816 -81.16732 26550 ft 263 kts 81°
2026-04-27 20:37 25.14940 -81.14720 26790 ft 263 kts 81°
2026-04-27 20:38 25.15064 -81.12711 27036 ft 262 kts 81°
2026-04-27 20:38 25.15185 -81.10703 27283 ft 262 kts 81°
2026-04-27 20:38 25.15307 -81.08698 27533 ft 262 kts 81°
2026-04-27 20:38 25.15427 -81.06698 27784 ft 261 kts 81°
2026-04-27 20:39 25.15546 -81.04724 28035 ft 261 kts 81°
2026-04-27 20:39 25.15667 -81.02727 28292 ft 260 kts 81°
2026-04-27 20:39 25.15787 -81.00731 28550 ft 260 kts 81°
2026-04-27 20:39 25.15906 -80.98738 28811 ft 260 kts 81°
2026-04-27 20:40 25.16025 -80.96746 29073 ft 260 kts 81°
2026-04-27 20:40 25.16144 -80.94757 29344 ft 260 kts 81°
2026-04-27 20:40 25.16264 -80.92767 29608 ft 260 kts 81°
2026-04-27 20:40 25.16383 -80.90778 29899 ft 260 kts 81°
2026-04-27 20:41 25.16501 -80.88787 30158 ft 260 kts 81°
2026-04-27 20:41 25.16620 -80.86795 30388 ft 260 kts 81°
2026-04-27 20:41 25.16739 -80.84799 30620 ft 260 kts 81°
2026-04-27 20:41 25.16857 -80.82804 30855 ft 261 kts 81°
2026-04-27 20:42 25.16976 -80.80801 31015 ft 265 kts 81°
2026-04-27 20:42 25.17101 -80.78731 31022 ft 275 kts 82°
2026-04-27 20:42 25.17224 -80.76597 31031 ft 282 kts 82°
2026-04-27 20:42 25.17352 -80.74406 31029 ft 290 kts 82°
2026-04-27 20:43 25.17480 -80.72192 31031 ft 296 kts 82°
2026-04-27 20:43 25.17614 -80.69870 31029 ft 302 kts 82°
2026-04-27 20:43 25.17886 -80.65173 31025 ft 315 kts 82°
2026-04-27 20:44 25.18169 -80.60270 31028 ft 324 kts 82°
2026-04-27 20:44 25.18457 -80.55252 31033 ft 330 kts 82°
2026-04-27 20:45 25.18747 -80.50148 31032 ft 335 kts 83°
2026-04-27 20:45 25.19041 -80.44982 31035 ft 339 kts 83°
2026-04-27 20:46 25.19342 -80.39772 31035 ft 341 kts 83°
2026-04-27 20:46 25.19631 -80.34524 31035 ft 343 kts 83°
2026-04-27 20:47 25.19923 -80.29256 31039 ft 344 kts 83°
2026-04-27 20:47 25.20214 -80.23978 31040 ft 345 kts 83°
2026-04-27 20:48 25.20454 -80.19583 31040 ft 345 kts 83°
2026-04-27 20:48 25.20794 -80.13393 31036 ft 346 kts 83°
2026-04-27 20:49 25.21080 -80.08092 31037 ft 346 kts 83°
2026-04-27 20:49 25.21366 -80.02783 31037 ft 346 kts 83°
2026-04-27 20:50 25.21650 -79.97472 31034 ft 347 kts 83°
2026-04-27 20:50 25.21927 -79.92189 31034 ft 347 kts 83°
2026-04-27 20:51 25.22210 -79.86841 31034 ft 347 kts 83°
2026-04-27 20:51 25.22487 -79.81524 31034 ft 347 kts 83°
2026-04-27 20:52 25.22761 -79.76242 31035 ft 347 kts 83°
2026-04-27 20:52 25.23037 -79.70918 31035 ft 347 kts 83°
2026-04-27 20:53 25.23310 -79.65594 31036 ft 347 kts 83°
2026-04-27 20:53 25.23581 -79.60269 31036 ft 347 kts 83°
2026-04-27 20:54 25.23982 -79.52281 31036 ft 347 kts 83°
2026-04-27 20:55 25.24249 -79.46952 31037 ft 348 kts 83°
2026-04-27 20:55 25.24512 -79.41621 31035 ft 348 kts 83°
2026-04-27 20:56 25.24774 -79.36284 31035 ft 348 kts 83°
2026-04-27 20:56 25.25008 -79.31590 31035 ft 348 kts 83°
2026-04-27 20:57 25.25268 -79.26246 31035 ft 348 kts 82°
2026-04-27 20:57 25.25523 -79.20905 31035 ft 348 kts 82°
2026-04-27 20:58 25.25780 -79.15571 31035 ft 348 kts 82°
2026-04-27 20:58 25.26030 -79.10243 31037 ft 347 kts 82°
2026-04-27 20:59 25.26281 -79.04951 31039 ft 347 kts 83°
2026-04-27 20:59 25.26529 -78.99615 31038 ft 348 kts 83°
2026-04-27 21:00 25.26776 -78.94279 31035 ft 348 kts 83°